Change the Weather History Date:

Monday, November 10, 2014

  Actual Average Record
Temperature  
Mean Temperature 40 °F -  
Max Temperature 53 °F 50 °F 73 °F (1931)
Min Temperature 26 °F 31 °F 12 °F (1992)
Degree Days  
Heating Degree Days 26    
Moisture  
Dew Point 26 °F    
Average Humidity 65    
Maximum Humidity 80    
Minimum Humidity 41    
Precipitation  
Precipitation 0.00 in - - ()
Sea Level Pressure  
Sea Level Pressure 30.13 in    
Wind  
Wind Speed 0 mph (SSW)    
Max Wind Speed 7 mph    
Max Gust Speed -    
Visibility 9 miles    
Events      
Averages and records for this station are not official NWS values.
T = Trace of Precipitation, MM = Missing Value Source: NWS Daily Summary

Daily Weather History Graph

Daily Weather History Graph

Search for Another Location

Airport or City:

Trip Planner

Search our weather history database for the weather conditions in past years. The results will help you decide how hot, cold, wet, or windy it might be!

Date:

Astronomy

Nov. 10, 2014 Rise Set
Actual Time 6:34 AM EST 4:30 PM EST
Civil Twilight 6:04 AM EST 5:00 PM EST
Nautical Twilight 5:30 AM EST 5:34 PM EST
Astronomical Twilight 4:57 AM EST 6:07 PM EST
Moon 7:54 PM EST (11/10) 9:55 AM EST (11/10)
Length of Visible Light 10h 56m
Length of Day
9h 55m
Waning Gibbous, 85% of the Moon is Illuminated
Nov 10
Waning Gibbous
Nov 14
Last Quarter
Nov 22
New
Nov 29
First Quarter
Dec 6
Full

Hourly Weather History & Observations

Time (EST) Temp. Windchill Dew Point Humidity Pressure Visibility Wind Dir Wind Speed Gust Speed Precip Events Conditions
12:15 AM 28.4 °F - 21.2 °F 74% 30.02 in 5.0 mi Calm Calm - N/A   Clear
12:35 AM 28.4 °F - 21.2 °F 74% 30.02 in 7.0 mi Calm Calm - N/A   Clear
12:55 AM 28.4 °F - 19.4 °F 69% 30.02 in 8.0 mi Calm Calm - N/A   Clear
1:15 AM 26.6 °F - 19.4 °F 74% 30.02 in 9.0 mi Calm Calm - N/A   Clear
1:35 AM 28.4 °F - 21.2 °F 74% 30.02 in 10.0 mi Calm Calm - N/A   Clear
1:55 AM 28.4 °F - 21.2 °F 74% 30.02 in 9.0 mi Calm Calm - N/A   Clear
2:15 AM 28.4 °F - 21.2 °F 74% 30.03 in 10.0 mi Calm Calm - N/A   Clear
2:35 AM 28.4 °F - 21.2 °F 74% 30.03 in 10.0 mi Calm Calm - N/A   Clear
2:55 AM 28.4 °F - 21.2 °F 74% 30.03 in 10.0 mi Calm Calm - N/A   Clear
3:15 AM 30.2 °F - 21.2 °F 69% 30.03 in 10.0 mi Calm Calm - N/A   Partly Cloudy
3:35 AM 30.2 °F - 21.2 °F 69% 30.03 in 10.0 mi Calm Calm - N/A   Clear
3:55 AM 30.2 °F - 21.2 °F 69% 30.05 in 10.0 mi Calm Calm - N/A   Partly Cloudy
4:15 AM 28.4 °F - 21.2 °F 74% 30.06 in 10.0 mi Calm Calm - N/A   Clear
4:35 AM 28.4 °F - 21.2 °F 74% 30.06 in 10.0 mi Calm Calm - N/A   Clear
4:55 AM 30.2 °F - 21.2 °F 69% 30.07 in 10.0 mi Calm Calm - N/A   Clear
5:15 AM 30.2 °F - 21.2 °F 69% 30.08 in 10.0 mi Calm Calm - N/A   Clear
5:35 AM 28.4 °F - 21.2 °F 74% 30.08 in 10.0 mi Calm Calm - N/A   Clear
5:55 AM 28.4 °F - 19.4 °F 69% 30.08 in 10.0 mi Calm Calm - N/A   Clear
6:15 AM 28.4 °F - 19.4 °F 69% 30.09 in 9.0 mi Calm Calm - N/A   Clear
6:35 AM 28.4 °F - 21.2 °F 74% 30.10 in 7.0 mi Calm Calm - N/A   Clear
6:55 AM 28.4 °F - 19.4 °F 69% 30.11 in 8.0 mi Calm Calm - N/A   Clear
7:15 AM 28.4 °F - 21.2 °F 74% 30.12 in 8.0 mi Calm Calm - N/A   Clear
7:35 AM 30.2 °F - 23.0 °F 75% 30.13 in 10.0 mi Calm Calm - N/A   Clear
7:55 AM 30.2 °F - 23.0 °F 75% 30.13 in 10.0 mi Calm Calm - N/A   Clear
8:15 AM 32.0 °F - 24.8 °F 75% 30.14 in 10.0 mi Calm Calm - N/A   Clear
8:35 AM 33.8 °F - 24.8 °F 70% 30.14 in 10.0 mi Calm Calm - N/A   Clear
8:55 AM 33.8 °F - 26.6 °F 75% 30.15 in 10.0 mi Calm Calm - N/A   Clear
9:15 AM 35.6 °F - 26.6 °F 70% 30.15 in 10.0 mi Calm Calm - N/A   Clear
9:35 AM 37.4 °F - 26.6 °F 65% 30.16 in 10.0 mi Calm Calm - N/A   Clear
9:55 AM 41.0 °F - 28.4 °F 61% 30.16 in 10.0 mi Calm Calm - N/A   Clear
10:15 AM 44.6 °F - 28.4 °F 53% 30.16 in 10.0 mi Calm Calm - N/A   Clear
10:35 AM 46.4 °F 45.2 °F 28.4 °F 50% 30.15 in 10.0 mi SSW 3.5 mph - N/A   Clear
10:55 AM 46.4 °F - 28.4 °F 50% 30.15 in 10.0 mi Calm Calm - N/A   Partly Cloudy
11:15 AM 48.2 °F - 30.2 °F 50% 30.14 in 10.0 mi Calm Calm - N/A   Mostly Cloudy
11:35 AM 48.2 °F - 28.4 °F 46% 30.15 in 10.0 mi NW 3.5 mph - N/A   Overcast
11:55 AM 48.2 °F - 30.2 °F 50% 30.15 in 10.0 mi Calm Calm - N/A   Overcast
12:15 PM 46.4 °F - 30.2 °F 53% 30.15 in 10.0 mi Calm Calm - N/A   Overcast
12:35 PM 48.2 °F - 30.2 °F 50% 30.15 in 10.0 mi Calm Calm - N/A   Overcast
12:55 PM 48.2 °F - 30.2 °F 50% 30.14 in 10.0 mi Calm Calm - N/A   Overcast
1:15 PM 50.0 °F - 30.2 °F 47% 30.14 in 10.0 mi Calm Calm - N/A   Mostly Cloudy
1:35 PM 51.8 °F - 30.2 °F 44% 30.14 in 10.0 mi Calm Calm - N/A   Clear
1:55 PM 53.6 °F - 30.2 °F 41% 30.14 in 10.0 mi SSW 4.6 mph - N/A   Clear
2:15 PM 53.6 °F - 30.2 °F 41% 30.14 in 10.0 mi South 6.9 mph - N/A   Clear
2:35 PM 53.6 °F - 30.2 °F 41% 30.14 in 10.0 mi SSW 5.8 mph - N/A   Clear
2:55 PM 53.6 °F - 30.2 °F 41% 30.14 in 10.0 mi South 4.6 mph - N/A   Clear
3:15 PM 53.6 °F - 30.2 °F 41% 30.14 in 10.0 mi Calm Calm - N/A   Clear
3:35 PM 53.6 °F - 30.2 °F 41% 30.15 in 10.0 mi Calm Calm - N/A   Clear
3:55 PM 51.8 °F - 30.2 °F 44% 30.15 in 10.0 mi Calm Calm - N/A   Clear
4:15 PM 48.2 °F - 32.0 °F 54% 30.15 in 10.0 mi Calm Calm - N/A   Clear
4:35 PM 46.4 °F - 32.0 °F 57% 30.15 in 10.0 mi Calm Calm - N/A   Clear
4:55 PM 44.6 °F - 30.2 °F 57% 30.16 in 10.0 mi Calm Calm - N/A   Clear
5:15 PM 42.8 °F - 30.2 °F 61% 30.16 in 10.0 mi Calm Calm - N/A   Clear
5:35 PM 41.0 °F - 30.2 °F 65% 30.16 in 10.0 mi Calm Calm - N/A   Clear
5:55 PM 39.2 °F - 28.4 °F 65% 30.16 in 10.0 mi Calm Calm - N/A   Clear
6:15 PM 39.2 °F - 28.4 °F 65% 30.17 in 10.0 mi Calm Calm - N/A   Clear
6:35 PM 37.4 °F - 28.4 °F 70% 30.17 in 10.0 mi Calm Calm - N/A   Clear
6:55 PM 37.4 °F - 28.4 °F 70% 30.18 in 10.0 mi Calm Calm - N/A   Clear
7:15 PM 35.6 °F - 26.6 °F 70% 30.18 in 10.0 mi Calm Calm - N/A   Clear
7:35 PM 35.6 °F - 28.4 °F 75% 30.17 in 10.0 mi Calm Calm - N/A   Clear
7:55 PM 35.6 °F - 26.6 °F 70% 30.18 in 10.0 mi Calm Calm - N/A   Clear
8:15 PM 33.8 °F - 26.6 °F 75% 30.18 in 8.0 mi Calm Calm - N/A   Clear
8:35 PM 33.8 °F - 26.6 °F 75% 30.19 in 10.0 mi Calm Calm - N/A   Clear
8:55 PM 33.8 °F - 26.6 °F 75% 30.18 in 10.0 mi Calm Calm - N/A   Clear
9:15 PM 33.8 °F - 26.6 °F 75% 30.18 in 7.0 mi Calm Calm - N/A   Clear
9:35 PM 33.8 °F - 26.6 °F 75% 30.18 in 9.0 mi Calm Calm - N/A   Clear
9:55 PM 32.0 °F - 24.8 °F 75% 30.17 in 8.0 mi Calm Calm - N/A   Clear
10:15 PM 32.0 °F - 24.8 °F 75% 30.17 in 5.0 mi Calm Calm - N/A   Clear
10:35 PM 30.2 °F - 24.8 °F 80% 30.17 in 3.0 mi Calm Calm - N/A   Clear
10:55 PM 32.0 °F - 24.8 °F 75% 30.17 in 5.0 mi Calm Calm - N/A   Clear
11:15 PM 30.2 °F 26.7 °F 24.8 °F 80% 30.17 in 1.2 mi South 3.5 mph - N/A   Clear
11:35 PM 30.2 °F 26.7 °F 23.0 °F 75% 30.18 in 5.0 mi SSW 3.5 mph - N/A   Clear
11:55 PM 30.2 °F - 24.8 °F 80% 30.17 in 5.0 mi Calm Calm - N/A   Clear